Location: Eaton Estates
(41.3089°N, 82.0057°W)
Time: 12:54:00
(UTC+00:00)

NOSS 0 Rocket - Pass Details

Date: 17 June 2021
Orbit: 934 x 956 km, 70.0° (Epoch: 30 July)

Event Time Altitude Azimuth Distance (km) Brightness Sun altitude
Exits shadow 04:57:13 39° 229° (SW) 1,375 4.5 -24.9°
Maximum altitude 04:59:30 67° 297° (WNW) 1,023 4.1 -24.9°
Drops below altitude 10° 05:05:43 10° 21° (NNE) 2,685 7.1 -25.1°
Sets 05:08:18 0° 24° (NNE) 3,636 8.0 -25.1°
